User: anonymous   Login
Location: Montr�al
(45.5000°N, 73.5830°W)
Time: 12:06:55
(UTC-04:00)
Language:

Cosmos 1470 Rocket - Orbit

View from above orbital plane
View from above orbital plane
View from above satellite
View from above satellite

Ground track
Ground track

The orbit data is extracted from the following two-line orbital elements,

1 14148U 83061B   15088.13397745  .00000572  00000-0  67169-4 0  9994
2 14148 082.5181 309.1091 0022976 123.4754 029.8652 14.82954490714628
Epoch (UTC): 29 March 2015 03:12:55
Eccentricity: 0.0022976
inclination: 82.5181°
perigee height: 604 km
apogee height: 636 km
right ascension of ascending node: 309.1091°
argument of perigee: 123.4754°
revolutions per day: 14.82954490
mean anomaly at epoch: 29.8652°
orbit number at epoch: 71462

The dashed part of the orbit path shows where the satellite is in the earth's shadow,  

DLR